Location: Peebles
(55.6412°N, 3.1714°W)
Time: 09:58:12
(UTC+01:00)

Resurs 01 Rocket - Pass Details

Date: 26 September 2021
Orbit: 634 x 644 km, 97.9° (Epoch: 20 October)

Event Time Altitude Azimuth Distance (km) Brightness Sun altitude
Exits shadow 21:20:47 46° 142° (SE) 864 1.8 -19.9°
Maximum altitude 21:22:02 73° 72° (ENE) 672 1.5 -20.0°
Drops below altitude 10° 21:26:27 10° 348° (NNW) 2,035 4.8 -20.6°
Sets 21:28:40 0° 346° (NNW) 2,948 5.7 -20.9°
